Home > Time Zones > World Clock > Weather > India > Theni > Past weeks

Flag for India Weather past 2 weeks in Theni, Tamil Nadu, India

Now
84 °F

Scattered clouds.


Feels Like: 88 °F
Forecast: 72 / 96 °F
Wind: 15 mph from South

Location: Coimbatore / Peelamedu

Current Time: Aug 29, 2015 at 7:02:15 PM

Latest Report: Aug 29, 2015 at 6:30 PM


Visibility: 4 mi

Pressure: 29.77 "Hg

Humidity: 62%

Dew point: 70 °F

Location of TheniLocation

Historic Weather in Theni — Graph

°F

Theni temperature yesterday

Maximum temperature yesterday: 91 °F (at 2:00 PM)
Minimum temperature yesterday: 73 °F (at 2:30 AM)
Average temperature yesterday: 82 °F

Past Weeks' High & Low Weather Summary

 TemperatureHumidityPressure
High93 °F (Aug 15, 2:30 PM)100% (Aug 17, 2:30 AM)30.48 "Hg (Aug 17, 2:30 AM)
Low72 °F (Aug 26, 6:30 AM)41% (Aug 20, 11:30 AM)29.74 "Hg (Aug 17, 4:00 PM)
Average82 °F71%29.86 "Hg
* Reported Aug 14 5:30 PM — Aug 29 6:00 PM, Theni, Weather by CustomWeather, © 2015

Note: Actual official high and low records may vary slightly from our data, if they occured in-between our weather recording intervals... More about our weather records

Advertising

Theni weather history for previous 24 hours

 ConditionsComfort  
Time TempWeatherWind HumidityBarometerVisibility
6:00 PM
Sat, Aug 29
84 °FScattered clouds.15 mph62%29.77 "Hg5 mi
5:30 PM86 °FScattered clouds.10 mph59%29.77 "Hg5 mi
5:00 PM88 °FScattered clouds.16 mph55%29.77 "Hg5 mi
3:00 PM91 °FScattered clouds.15 mph49%29.77 "Hg5 mi
1:30 PM90 °FScattered clouds.13 mph52%29.80 "Hg5 mi
1:00 PM90 °FScattered clouds.9 mph52%29.80 "Hg5 mi
12:30 PM90 °FScattered clouds.15 mph52%29.83 "Hg5 mi
11:30 AM88 °FScattered clouds.13 mph52%29.86 "Hg5 mi
11:00 AM86 °FPassing clouds.10 mph55%29.86 "Hg5 mi
10:30 AM84 °FPassing clouds.10 mph58%29.89 "Hg4 mi
10:00 AM84 °FPassing clouds.12 mph62%29.89 "Hg4 mi
9:30 AM82 °FPassing clouds.7 mph66%29.89 "Hg4 mi
2:30 AM75 °FHaze.9 mph94%29.80 "Hg3 mi
9:30 PM
Fri, Aug 28
79 °FHaze.9 mph74%29.86 "Hg3 mi
8:30 PM79 °FPassing clouds.10 mph74%29.86 "Hg4 mi
8:00 PM81 °FPassing clouds.13 mph74%29.83 "Hg4 mi
7:30 PM81 °FPassing clouds.13 mph74%29.83 "Hg4 mi
7:00 PM81 °FPassing clouds.14 mph70%29.83 "Hg4 mi
Weather by CustomWeather, © 2015

See weather overviewHow to use our weather pages